Regional Weather Roundup
Issued by NWS

Home | Current Version | Previous Version | Graphics & Text | Print | Product List | Glossary On
Versions: 1 2 3 4 5 6 7 8 9 10 11 12 13 14 15 16 17 18 19 20 21 22 23 24 25 26 27 28 29 30 31 32 33 34 35 36 37 38 39 40 41 42 43 44 45 46 47 48 49 50
000
ASUS45 KTFX 240310
RWRMT
MONTANA REGIONAL WEATHER ROUNDUP
NATIONAL WEATHER SERVICE GREAT FALLS MT
900 PM MDT SAT MAY 23 2015

NOTE: "FAIR" INDICATES FEW OR NO CLOUDS BELOW 12000 FEET WITH NO
SIGNIFICANT WEATHER AND/OR OBSTRUCTIONS TO VISIBILITY.

MTZ001>007-043-240400-
WEST OF THE DIVIDE

CITY           SKY/WX    TMP DP  RH WIND       PRES   REMARKS
KALISPELL      CLEAR     59  41  51 CALM      30.05R
MISSOULA       CLOUDY    58  44  60 CALM      30.06R
BUTTE          CLOUDY    51  40  65 N7        30.10R
MULLAN PASS    MOCLDY    54  32  43 SE5       30.13R
DEER LODGE       N/A     52  43  71 NW7       30.14S
EUREKA           N/A     72  30  21 E7        30.02R
HAMILTON         N/A     59  41  51 N13       30.05R
LIBBY            N/A     72  36  26 E12G20    30.02R
RONAN            N/A     63  41  44 CALM      30.09R
$$

MTZ008-052>055-240400-
SOUTHWEST MONTANA

CITY           SKY/WX    TMP DP  RH WIND       PRES   REMARKS
BOZEMAN        MOCLDY    49  47  93 NW3       30.07R
DILLON         CLOUDY    53  42  66 N20       30.04R
W YELLOWSTONE  CLOUDY    41  41 100 CALM      30.06R
THREE FORKS      N/A     53  19  26 CALM      30.06S
TWIN BRIDGES     N/A     54  42  63 N21       30.02R
$$

MTZ009-010-012-014-046-048-049-054-240400-
EAST SLOPES AND CENTRAL MONTANA

CITY           SKY/WX    TMP DP  RH WIND       PRES   REMARKS
CUT BANK       PTCLDY    57  44  62 SW3       30.11R
GREAT FALLS    CLOUDY    52  49  89 CALM      30.10S
MALMSTROM AFB  CLOUDY    55  49  80 NW5       30.10S
HELENA         CLOUDY    54  47  77 W6        30.09R
CONRAD           N/A     56  51  83 W2        30.12S
$$

MTZ011-013-016-021-045-047-050-051-240400-
NORTH CENTRAL MONTANA

CITY           SKY/WX    TMP DP  RH WIND       PRES   REMARKS
HAVRE          MOCLDY    63  42  46 E9        30.07S
LEWISTOWN      CLOUDY    54  48  80 SE3       30.10R
N BAR RANCH    CLOUDY    52  43  71 NE6       30.12R
CHINOOK          N/A     64  41  42 E5        30.08S
FORT BENTON      N/A     55  50  82 SW7       30.09F
$$

MTZ017>020-022>027-061-062-240400-
NORTHEAST MONTANA

CITY           SKY/WX    TMP DP  RH WIND       PRES   REMARKS
GLASGOW        PTCLDY    62  42  47 S3        30.07S
JORDAN           N/A     57  44  62 SE6       30.07S
SIDNEY         CLOUDY    57  45  62 SE5       30.09R
WOLF POINT     MOCLDY    64  43  46 CALM      30.07S
MALTA            N/A     63  43  48 CALM      30.05R
PLENTYWOOD       N/A     64  39  39 S3        30.09S
POPLAR           N/A     63  43  48 SE3       30.08S
$$

MTZ028>42-056>058-240400-
SOUTHCENTRAL AND SOUTHEAST MONTANA

CITY           SKY/WX    TMP DP  RH WIND       PRES   REMARKS
BAKER          CLOUDY    52  50  93 NE8       30.09R
BILLINGS       MOCLDY    55  47  74 E13       30.05R
LIVINGSTON     CLOUDY    53  46  77 E9        30.05S
MILES CITY     LGT RAIN  52  49  89 NE8       30.08R
BIG TIMBER       N/A     54  45  71 N6        30.07S
FORSYTH          N/A     54  52  94 E7        30.07R
LAUREL           N/A     54  45  71 NE3       30.04R
ROUNDUP          N/A     57  43  59 E8        29.98R
$$

REGIONAL REPORTS...DAKOTAS

CITY           SKY/WX    TMP DP  RH WIND       PRES   REMARKS
WILLISTON      CLOUDY    64  41  42 SE6       30.08S
MINOT          CLOUDY    64  45  49 S8        30.08R
DICKINSON      MOCLDY    54  46  74 SE5       30.08R
BEACH          CLOUDY    52  52 100 SE3       30.10S
CROSBY         FAIR      59  41  51 SW7       30.09R
WATFORD CITY   FAIR      57  45  62 SE5       30.07S
BISMARCK       CLOUDY    58  50  75 SE8       30.10S
GRAND FORKS    MOCLDY    62  46  55 S8        30.09R
FARGO          CLEAR     60  48  64 SE6       30.11S
BUFFALO SD       N/A     56  47  71 E10       30.01S
RAPID CITY     CLOUDY    54  53  97 E13       30.02S
$$

REGIONAL REPORTS...WYOMING/IDAHO/WASHINGTON

CITY           SKY/WX    TMP DP  RH WIND       PRES   REMARKS
GILLETTE       CLOUDY    53  46  77 NE12      30.01S
SHERIDAN       CLOUDY    51  47  86 SW6       30.04R
BUFFALO WY     CLOUDY    49  47  93 NW8       30.05R
CODY           CLOUDY    50  43  76 N12G18    30.03S
YELLOWSTONE LA   N/A     42  34  73 VRB3      30.09S
IDAHO FALLS    MOCLDY    52  48  86 N5        29.98S
SALMON         CLOUDY    55  46  71 N3        30.00R
BOISE          LGT RAIN  71  50  47 NE16G23   29.84R
SPOKANE        PTCLDY    78  29  16 NE6       29.94R
$$

REGIONAL REPORTS...ALBERTA

CITY           SKY/WX    TMP DP  RH WIND       PRES   REMARKS
EDMONTON       CLEAR     68  34  28 E6        30.05S
CALGARY        PTCLDY    68  27  21 SE8       30.10F
LETHBRIDGE     MOCLDY    63  34  34 E6        30.08S
MEDICINE HAT   PTCLDY    66  34  30 SE8       30.07S
$$

REGIONAL REPORTS...SASKATCHEWAN

CITY           SKY/WX    TMP DP  RH WIND       PRES   REMARKS
SWIFT CURRENT  CLEAR     61  30  31 S7        30.10S
REGINA         PTCLDY    66  34  30 S6        30.08S
SASKATOON      PTCLDY    70  36  28 SW7       30.07S
$$



USA.gov is the U.S. government's official web portal to all federal, state and local government web resources and services.